�N����,����,�~����,�C��,���x,�C��,����,���ϕ���,�ő�u�ԕ���,�ő厞����,���˗�,�I�_���x,�n�����x,�ő啗���N��,DTYPE
"23/10/05","00:10",0.0,17.9,94.6,1003.4,315.8,1.7,3.3,340.2,0.00,17.1,21.1,"00:06:40",1
"23/10/05","00:20",0.0,18.1,94.5,1003.4,332.3,2.3,3.5,340.5,0.00,17.2,21.0,"00:11:36",1
"23/10/05","00:30",0.0,18.2,94.2,1002.9,328.1,2.3,3.7,345.8,0.00,17.3,21.1,"00:22:08",1
"23/10/05","00:40",0.0,18.2,94.2,1002.9,333.6,0.7,1.7,326.6,0.00,17.3,21.1,"00:31:20",1
"23/10/05","00:50",0.0,17.9,94.1,1002.9,309.7,1.2,1.9,324.2,0.00,17.0,21.2,"00:46:16",1
"23/10/05","01:00",0.0,17.7,94.2,1002.9,314.1,0.8,1.3,331.1,0.00,16.8,21.1,"00:50:16",1
"23/10/05","01:10",0.0,17.6,94.2,1002.9,307.2,0.8,1.8,324.3,0.00,16.7,21.2,"01:05:12",1
"23/10/05","01:20",0.0,17.7,94.3,1002.6,334.5,1.0,2.8,337.3,0.00,16.8,21.2,"01:19:04",1
"23/10/05","01:30",0.0,17.7,94.3,1002.4,305.9,1.2,2.1,326.5,0.00,16.8,20.9,"01:20:48",1
"23/10/05","01:40",0.0,17.6,94.3,1002.4,277.3,1.0,1.6,301.6,0.00,16.7,20.8,"01:38:00",1
"23/10/05","01:50",0.0,17.6,94.4,1002.4,283.1,1.1,1.8,320.5,0.00,16.7,20.8,"01:45:12",1
"23/10/05","02:00",0.0,17.8,94.4,1002.4,324.2,1.6,2.8,320.8,0.00,16.9,21.0,"01:51:44",1
"23/10/05","02:10",0.0,17.8,94.3,1002.6,323.8,1.3,1.9,339.4,0.00,16.9,21.0,"02:08:56",1
"23/10/05","02:20",0.0,17.8,94.3,1001.9,323.5,1.3,2.5,333.5,0.00,16.9,20.9,"02:15:36",1
"23/10/05","02:30",0.0,17.9,94.3,1002.2,310.3,1.1,1.9,336.7,0.00,17.0,20.9,"02:25:20",1
"23/10/05","02:40",0.0,17.8,94.3,1002.2,326.5,1.3,1.9,328.5,0.00,16.9,20.7,"02:37:28",1
"23/10/05","02:50",0.0,17.6,94.4,1002.2,294.6,0.7,1.3,307.2,0.00,16.7,20.9,"02:41:44",1
"23/10/05","03:00",0.0,17.5,94.5,1002.6,292.0,1.1,1.4,321.0,0.00,16.6,20.9,"02:55:36",1
"23/10/05","03:10",0.0,17.7,94.5,1002.4,270.5,1.1,2.0,317.7,0.00,16.8,20.9,"03:08:40",1
"23/10/05","03:20",0.0,17.7,94.6,1001.9,324.0,1.7,2.5,318.0,0.00,16.9,20.8,"03:11:28",1
"23/10/05","03:30",0.0,17.6,94.6,1001.7,319.8,1.3,1.9,334.6,0.00,16.8,21.0,"03:26:40",1
"23/10/05","03:40",0.0,17.5,94.6,1001.7,285.7,0.8,1.3,301.6,0.00,16.7,20.7,"03:37:36",1
"23/10/05","03:50",0.0,17.5,94.7,1001.5,300.1,1.1,1.7,304.2,0.00,16.7,20.8,"03:45:36",1
"23/10/05","04:00",0.0,17.5,94.7,1001.5,323.2,1.1,1.6,316.9,0.00,16.7,20.9,"03:54:24",1
"23/10/05","04:10",0.0,17.4,94.8,1001.9,300.2,0.8,1.4,328.2,0.00,16.6,20.8,"04:00:02",1
"23/10/05","04:20",0.0,17.5,94.8,1001.7,322.5,1.1,1.6,329.3,0.00,16.7,20.7,"04:12:56",1
"23/10/05","04:30",0.0,17.4,94.8,1001.5,321.2,1.0,1.3,319.4,0.00,16.6,20.7,"04:25:44",1
"23/10/05","04:40",0.0,17.4,94.9,1001.5,305.8,0.8,1.6,313.2,0.00,16.6,20.5,"04:38:40",1
"23/10/05","04:50",0.0,17.3,94.9,1001.5,317.3,1.1,1.6,329.2,0.00,16.5,20.5,"04:41:28",1
"23/10/05","05:00",0.0,17.2,95.0,1001.5,294.9,0.6,1.0,278.6,0.00,16.4,20.7,"04:52:00",1
"23/10/05","05:10",0.0,17.2,95.1,1001.5,324.5,1.0,1.4,311.8,0.00,16.4,20.7,"05:02:16",1
"23/10/05","05:20",0.0,17.2,95.1,1001.2,288.4,0.7,1.2,318.3,0.00,16.4,20.6,"05:13:04",1
"23/10/05","05:30",0.0,17.3,95.2,1001.5,297.5,1.2,1.6,317.2,0.00,16.6,20.6,"05:29:04",1
"23/10/05","05:40",0.0,17.3,95.2,1001.7,333.8,1.2,2.0,329.1,0.00,16.6,20.5,"05:33:52",1
"23/10/05","05:50",0.0,17.4,95.2,1001.5,326.4,1.2,1.7,333.9,0.00,16.7,20.8,"05:41:28",1
"23/10/05","06:00",0.0,17.3,95.3,1001.7,324.4,1.0,1.7,328.8,0.00,16.6,20.5,"05:53:20",1
"23/10/05","06:10",0.0,17.6,95.4,1001.9,323.8,1.7,2.6,321.2,0.00,16.9,20.8,"06:04:24",1
"23/10/05","06:20",0.0,17.8,95.4,1001.5,332.1,1.5,2.4,339.6,0.00,17.1,20.6,"06:12:40",1
"23/10/05","06:30",0.0,17.9,95.4,1001.2,330.0,1.0,2.1,314.4,0.00,17.2,20.5,"06:20:02",1
"23/10/05","06:40",0.0,18.0,95.4,1001.2,323.9,1.3,2.8,305.6,0.00,17.3,20.5,"06:30:16",1
"23/10/05","06:50",0.0,18.0,95.4,1001.9,314.1,1.2,2.2,334.5,0.00,17.3,20.4,"06:45:12",1
"23/10/05","07:00",0.0,18.2,95.5,1001.7,293.9,0.8,1.4,307.0,0.00,17.5,20.6,"06:58:16",1
"23/10/05","07:10",0.0,18.3,95.4,1001.7,305.4,1.0,1.8,313.0,0.01,17.6,20.6,"07:06:56",1
"23/10/05","07:20",0.0,18.3,95.4,1001.7,316.5,1.1,1.9,337.9,0.00,17.6,20.5,"07:15:04",1
"23/10/05","07:30",0.0,18.3,95.4,1001.9,325.6,1.2,2.1,334.5,0.00,17.6,20.7,"07:23:20",1
"23/10/05","07:40",0.0,18.3,95.4,1001.7,270.5,0.6,1.3,323.4,0.00,17.6,20.6,"07:39:04",1
"23/10/05","07:50",0.0,18.3,95.4,1001.5,291.0,0.6,1.3,315.0,0.01,17.6,20.5,"07:49:52",1
"23/10/05","08:00",0.0,18.5,95.4,1001.5,291.8,1.0,1.3,311.7,0.01,17.8,20.5,"07:50:48",1
"23/10/05","08:10",0.0,18.6,95.4,1001.9,319.3,1.2,2.0,337.4,0.01,17.9,20.7,"08:01:44",1
"23/10/05","08:20",0.0,18.8,95.3,1001.7,305.0,0.5,1.0,305.8,0.03,18.1,20.6,"08:10:32",1
"23/10/05","08:30",0.0,18.8,95.1,1001.9,330.0,1.2,2.5,338.2,0.02,18.0,20.8,"08:22:40",1
"23/10/05","08:40",0.0,18.5,94.9,1001.7,319.5,1.6,3.3,342.1,0.01,17.7,20.6,"08:33:36",1
"23/10/05","08:50",0.0,18.4,94.2,1001.9,314.1,2.0,4.0,337.4,0.01,17.5,20.6,"08:48:48",1
"23/10/05","09:00",0.0,18.7,93.6,1001.9,316.6,2.0,3.7,332.3,0.03,17.7,20.5,"08:53:12",1
"23/10/05","09:10",0.0,18.9,92.6,1002.6,304.2,1.5,2.5,332.6,0.03,17.7,20.5,"09:06:40",1
"23/10/05","09:20",0.0,19.1,90.6,1002.4,280.2,2.1,5.0,260.8,0.03,17.6,20.7,"09:13:20",1
"23/10/05","09:30",0.0,19.7,87.5,1002.6,298.7,2.0,4.3,328.7,0.05,17.6,20.8,"09:21:04",1
"23/10/05","09:40",0.0,20.1,84.1,1002.4,304.2,2.0,3.2,299.2,0.03,17.4,20.6,"09:30:56",1
"23/10/05","09:50",0.0,20.1,81.2,1002.4,313.5,2.7,6.8,346.5,0.02,16.8,20.7,"09:44:24",1
"23/10/05","10:00",0.0,19.9,81.7,1002.6,318.2,2.1,4.1,317.7,0.03,16.7,20.5,"09:51:28",1
"23/10/05","10:10",0.0,19.5,84.0,1001.9,308.5,2.0,4.5,338.0,0.07,16.8,20.6,"10:05:04",1
"23/10/05","10:20",0.0,19.4,85.7,1002.2,308.1,1.8,4.3,315.9,0.11,17.0,20.6,"10:13:36",1
"23/10/05","10:30",0.0,19.6,86.2,1001.7,302.4,1.8,6.4,333.6,0.10,17.3,20.7,"10:23:52",1
"23/10/05","10:40",0.0,19.8,85.7,1001.7,308.5,2.2,4.2,299.6,0.11,17.4,20.7,"10:30:40",1
"23/10/05","10:50",0.0,19.9,84.7,1001.9,311.2,2.3,5.2,337.1,0.10,17.3,20.8,"10:40:56",1
"23/10/05","11:00",0.0,19.9,83.4,1001.9,320.7,2.1,4.8,351.1,0.11,17.0,20.7,"10:59:52",1
"23/10/05","11:10",0.0,20.5,81.0,1002.2,307.8,2.5,6.3,333.8,0.10,17.2,20.7,"11:03:28",1
"23/10/05","11:20",0.0,20.6,78.2,1002.2,304.3,2.6,9.4,349.3,0.10,16.7,20.7,"11:15:36",1
"23/10/05","11:30",0.0,20.4,76.4,1002.2,327.5,2.8,5.8,277.3,0.07,16.2,20.7,"11:24:24",1
"23/10/05","11:40",0.0,20.3,73.5,1001.9,324.6,3.2,7.5,345.6,0.11,15.5,20.7,"11:31:52",1
"23/10/05","11:50",0.0,20.2,71.8,1001.9,327.6,3.0,7.3,349.2,0.11,15.0,20.7,"11:47:28",1
"23/10/05","12:00",0.0,20.4,70.7,1002.2,323.7,3.5,5.7,303.8,0.14,14.9,20.8,"11:53:20",1
"23/10/05","12:10",0.0,20.6,70.6,1001.9,328.4,4.1,11.8,337.5,0.14,15.1,20.9,"12:00:32",1
"23/10/05","12:20",0.0,20.6,70.1,1001.5,329.3,3.1,7.8,328.6,0.13,15.0,20.8,"12:19:44",1
"23/10/05","12:30",0.0,20.5,70.0,1001.7,318.6,3.1,6.3,355.1,0.13,14.9,20.8,"12:25:04",1
"23/10/05","12:40",0.0,20.5,68.4,1001.5,326.6,3.6,8.2,327.7,0.14,14.5,20.7,"12:34:08",1
"23/10/05","12:50",0.0,20.7,67.1,1001.5,320.3,4.0,7.8,3.2,0.15,14.4,20.8,"12:41:36",1
"23/10/05","13:00",0.0,20.7,66.1,1001.5,312.6,4.2,9.3,319.8,0.17,14.2,20.9,"12:56:16",1
"23/10/05","13:10",0.0,20.9,65.5,1001.2,311.3,3.4,7.5,320.4,0.18,14.2,20.9,"13:02:16",1
"23/10/05","13:20",0.0,21.1,64.6,1001.0,313.0,3.1,8.2,330.8,0.19,14.2,20.9,"13:16:08",1
"23/10/05","13:30",0.2,21.0,61.8,1001.2,327.8,4.1,9.4,315.3,0.19,13.4,20.7,"13:27:20",1
"23/10/05","13:40",0.0,21.0,61.6,1001.2,325.1,4.6,8.9,337.3,0.17,13.4,20.8,"13:36:16",1
"23/10/05","13:50",0.0,21.0,61.7,1001.5,318.7,4.1,11.1,329.5,0.15,13.4,20.8,"13:47:20",1
"23/10/05","14:00",0.0,20.9,62.3,1001.2,325.9,3.4,8.5,283.3,0.13,13.5,21.0,"13:52:40",1
"23/10/05","14:10",0.0,20.7,62.0,1001.2,326.6,3.1,7.0,348.6,0.13,13.2,20.7,"14:09:44",1
"23/10/05","14:20",0.0,20.5,61.6,1001.2,331.5,3.5,6.2,327.5,0.12,12.9,20.7,"14:16:48",1
"23/10/05","14:30",0.0,20.4,60.1,1001.5,326.0,3.1,6.2,316.0,0.11,12.4,20.9,"14:26:40",1
"23/10/05","14:40",0.0,21.2,59.1,1001.2,333.3,4.2,8.8,330.3,0.23,12.9,21.1,"14:36:08",1
"23/10/05","14:50",0.0,21.5,55.5,1001.7,349.8,4.7,8.3,344.4,0.26,12.3,20.9,"14:42:32",1
"23/10/05","15:00",0.0,21.6,56.2,1001.5,330.6,4.1,7.8,303.3,0.22,12.5,20.9,"14:54:24",1
"23/10/05","15:10",0.0,21.4,55.9,1001.5,335.1,3.9,8.1,327.4,0.18,12.3,20.9,"15:00:16",1
"23/10/05","15:20",0.0,21.4,55.3,1001.7,328.3,3.5,7.5,336.5,0.20,12.1,21.0,"15:18:16",1
"23/10/05","15:30",0.0,21.3,55.3,1001.9,336.5,3.7,8.1,324.0,0.17,12.0,20.7,"15:26:48",1
"23/10/05","15:40",0.0,21.4,54.8,1001.7,339.1,3.6,7.2,275.5,0.15,12.0,21.1,"15:38:56",1
"23/10/05","15:50",0.0,21.2,53.9,1001.7,328.3,3.0,7.8,320.1,0.10,11.5,20.8,"15:40:24",1
"23/10/05","16:00",0.0,20.7,55.4,1002.2,318.0,3.2,9.3,337.0,0.06,11.5,21.0,"15:53:52",1
"23/10/05","16:10",0.0,20.6,55.4,1002.2,326.3,3.6,7.7,335.8,0.07,11.4,20.8,"16:06:40",1
"23/10/05","16:20",0.0,20.1,56.3,1002.6,337.2,3.6,8.0,323.2,0.03,11.2,20.9,"16:10:16",1
"23/10/05","16:30",0.0,20.1,57.5,1002.9,330.8,3.1,6.5,343.0,0.03,11.5,20.9,"16:21:28",1
"23/10/05","16:40",0.0,20.0,56.0,1003.1,332.3,4.0,8.3,332.6,0.02,11.0,20.8,"16:36:32",1
"23/10/05","16:50",0.0,19.9,57.3,1003.1,327.2,2.7,4.3,349.8,0.02,11.3,20.7,"16:41:12",1
"23/10/05","17:00",0.0,19.6,58.1,1003.1,322.5,2.3,4.9,347.9,0.00,11.2,20.9,"16:53:12",1
"23/10/05","17:10",0.0,19.2,57.8,1003.1,321.0,2.2,6.4,351.1,0.00,10.7,20.7,"17:07:52",1
"23/10/05","17:20",0.0,19.0,58.9,1003.4,327.0,2.3,4.3,345.3,0.00,10.8,20.7,"17:13:44",1
"23/10/05","17:30",0.0,18.6,60.0,1003.1,315.0,1.6,2.7,317.4,0.00,10.7,20.8,"17:21:04",1
"23/10/05","17:40",0.0,18.5,60.1,1003.6,323.2,2.1,3.6,351.8,0.00,10.7,20.7,"17:38:00",1
"23/10/05","17:50",0.0,18.5,59.9,1004.1,318.0,2.1,4.5,313.5,0.00,10.6,20.6,"17:47:28",1
"23/10/05","18:00",0.0,18.2,60.7,1003.8,324.4,2.0,4.1,348.9,0.00,10.5,20.6,"17:52:24",1
"23/10/05","18:10",0.0,17.8,62.3,1004.1,325.6,1.7,3.7,324.1,0.00,10.5,20.4,"18:00:56",1
"23/10/05","18:20",0.0,17.3,64.1,1004.1,317.8,1.3,2.5,320.0,0.00,10.5,20.6,"18:16:08",1
"23/10/05","18:30",0.0,17.1,65.9,1004.1,297.5,1.0,2.7,321.3,0.00,10.7,20.6,"18:23:24",1
"23/10/05","18:40",0.0,16.6,68.2,1003.8,315.1,1.3,2.2,296.7,0.00,10.8,20.6,"18:34:24",1
"23/10/05","18:50",0.0,15.8,70.5,1004.3,298.5,0.7,1.3,316.1,0.00,10.5,20.6,"18:42:20",1
"23/10/05","19:00",0.0,15.6,72.5,1004.5,323.0,0.7,1.8,356.3,0.00,10.7,20.2,"18:53:22",1
"23/10/05","19:10",0.0,15.0,73.9,1004.5,298.8,0.8,1.7,322.7,0.00,10.4,20.2,"19:06:26",1
"23/10/05","19:20",0.0,14.9,75.5,1004.8,307.2,0.8,2.0,330.5,0.00,10.7,20.2,"19:16:00",1
"23/10/05","19:30",0.0,14.8,77.3,1005.0,320.9,1.2,2.5,318.3,0.00,10.9,20.3,"19:26:16",1
"23/10/05","19:40",0.0,14.6,78.7,1005.5,299.4,0.8,1.8,323.2,0.00,11.0,20.4,"19:32:24",1
"23/10/05","19:50",0.0,14.2,79.9,1005.0,302.5,1.1,1.8,301.3,0.00,10.8,20.2,"19:44:08",1
"23/10/05","20:00",0.0,14.0,81.4,1005.0,318.2,1.1,2.0,329.5,0.00,10.9,20.0,"19:57:14",1
"23/10/05","20:10",0.0,13.8,82.6,1005.5,321.0,1.2,1.9,321.7,0.00,10.9,20.1,"20:06:48",1
"23/10/05","20:20",0.0,13.8,83.8,1005.5,317.0,1.3,2.2,307.7,0.00,11.2,20.0,"20:19:22",1
"23/10/05","20:30",0.0,14.4,84.3,1005.7,313.5,1.6,3.2,328.0,0.00,11.8,19.7,"20:24:56",1
"23/10/05","20:40",0.0,14.9,83.6,1006.0,303.6,1.7,2.4,283.5,0.00,12.2,19.9,"20:30:48",1
"23/10/05","20:50",0.0,15.5,82.1,1006.0,302.1,1.7,2.5,328.3,0.00,12.5,19.8,"20:42:12",1
"23/10/05","21:00",0.0,16.0,79.8,1006.0,302.3,2.0,3.4,282.8,0.00,12.6,19.8,"20:59:38",1
"23/10/05","21:10",0.0,15.9,78.7,1006.0,297.8,1.7,3.4,312.1,0.00,12.2,19.9,"21:02:34",1
"23/10/05","21:20",0.0,15.8,78.6,1006.2,308.0,2.0,3.9,340.1,0.00,12.1,19.8,"21:11:48",1
"23/10/05","21:30",0.0,15.7,78.8,1006.2,296.1,1.5,2.4,318.3,0.00,12.1,19.8,"21:25:04",1
"23/10/05","21:40",0.0,15.7,78.9,1006.2,278.7,1.5,3.1,245.5,0.00,12.1,19.9,"21:35:18",1
"23/10/05","21:50",0.0,15.6,78.9,1006.2,289.5,1.5,3.1,343.2,0.00,12.0,19.8,"21:40:20",1
"23/10/05","22:00",0.0,15.5,79.1,1006.2,288.9,1.3,2.6,319.3,0.00,11.9,19.6,"21:52:44",1
"23/10/05","22:10",0.0,15.0,79.6,1006.4,303.2,1.1,1.9,303.1,0.00,11.5,19.7,"22:05:58",1
"23/10/05","22:20",0.0,14.3,80.5,1006.2,301.0,1.0,1.6,313.5,0.00,11.0,19.6,"22:14:00",1
"23/10/05","22:30",0.0,14.1,82.0,1005.7,316.1,0.8,1.7,315.7,0.00,11.1,19.6,"22:28:44",1
"23/10/05","22:40",0.0,13.6,83.3,1006.0,276.7,1.1,1.4,270.5,0.00,10.9,19.7,"22:31:10",1
"23/10/05","22:50",0.0,13.9,84.9,1005.7,275.4,1.0,2.1,255.6,0.00,11.4,19.5,"22:47:20",1
"23/10/05","23:00",0.0,14.2,85.3,1006.2,265.5,1.1,3.9,303.8,0.00,11.8,19.6,"22:51:06",1
"23/10/05","23:10",0.0,14.0,85.9,1006.4,279.8,0.6,1.7,325.5,0.00,11.7,19.6,"23:07:46",1
"23/10/05","23:20",0.0,14.0,86.3,1006.4,297.0,1.0,1.6,293.7,0.00,11.8,19.4,"23:19:20",1
"23/10/05","23:30",0.0,14.1,86.7,1006.4,313.9,1.5,2.8,332.7,0.00,12.0,19.4,"23:26:02",1
"23/10/05","23:40",0.0,14.2,86.8,1006.2,317.9,1.6,3.7,351.3,0.00,12.1,19.5,"23:39:14",1
"23/10/05","23:50",0.0,14.4,86.5,1006.4,300.0,1.0,2.7,303.6,0.00,12.2,19.4,"23:40:44",1
"23/10/05","24:00",0.0,14.8,85.5,1006.7,288.0,2.0,3.2,347.5,0.00,12.4,19.5,"23:57:58",1
